Total_Precipitation_Accumulation
2.70 2.79 2.71 2.59 2.40 2.27 2.10 2.02 1.95 1.88 1.86 1.86 1.90 1.93 1.95 1.94 1.98 1.96 1.81 1.85 1.91 2.07 2.17 2.24 2.28 2.31 2.42 2.40 2.42 2.45 2.57 2.75 2.84 2.64 2.45 2.40 2.39 2.28 2.13 1.92 1.81 1.80 1.74
2.30 2.33 2.34 2.27 2.12 1.95 1.85 1.76 1.75 1.75 1.73 1.74 1.76 1.73 1.78 1.89 1.96 1.89 1.74 1.70 1.82 1.95 2.09 2.24 2.21 2.14 2.18 2.23 2.29 2.27 2.29 2.45 2.62 2.58 2.43 2.29 2.29 2.26 2.17 2.07 1.73 1.58 1.55
2.13 2.08 2.05 2.12 2.03 1.88 1.81 1.82 1.81 1.75 1.73 1.69 1.65 1.64 1.70 1.75 1.78 1.73 1.66 1.63 1.69 1.77 1.87 1.92 1.96 1.98 1.93 1.93 1.98 2.04 2.03 2.06 2.29 2.33 2.24 2.18 2.12 2.07 2.12 2.06 1.86 1.86 1.49
2.02 1.96 1.82 1.76 1.77 1.79 1.76 1.71 1.66 1.62 1.65 1.68 1.65 1.61 1.59 1.52 1.42 1.37 1.38 1.43 1.47 1.47 1.53 1.55 1.64 1.77 1.80 1.81 1.76 1.84 1.91 2.06 2.16 2.22 2.12 2.05 2.05 1.94 2.01 2.01 1.96 1.82 1.61
2.18 2.08 1.92 1.73 1.72 1.75 1.72 1.65 1.58 1.53 1.44 1.51 1.56 1.49 1.36 1.22 1.05 1.06 1.14 1.18 1.27 1.29 1.31 1.25 1.25 1.47 1.63 1.59 1.44 1.61 1.83 2.01 2.08 2.10 2.01 1.89 1.82 1.92 1.89 1.81 1.83 1.83 1.72
2.14 2.18 2.18 2.08 2.04 1.93 1.75 1.66 1.65 1.63 1.57 1.51 1.49 1.41 1.28 1.02 1.00 0.97 1.08 1.24 1.34 1.30 1.32 1.30 1.20 1.26 1.36 1.32 1.24 1.37 1.63 1.73 1.85 2.00 1.99 1.89 1.80 1.82 1.87 1.86 1.91 1.99 1.95
2.20 2.28 2.24 2.16 2.08 2.01 1.78 1.66 1.71 1.70 1.67 1.61 1.49 1.43 1.38 1.28 1.14 0.96 0.99 1.14 1.27 1.27 1.29 1.30 1.14 1.07 1.26 1.28 1.29 1.28 1.34 1.37 1.49 1.82 2.02 1.88 1.84 1.91 2.05 1.99 2.09 2.10 1.95
2.32 2.30 2.22 2.07 2.03 1.97 1.88 1.81 1.77 1.69 1.66 1.62 1.53 1.43 1.34 1.13 0.99 0.86 0.88 1.00 1.21 1.26 1.24 1.29 1.34 1.24 1.17 1.24 1.25 1.27 1.32 1.35 1.32 1.38 1.64 1.72 1.75 1.92 2.08 2.14 2.25 2.17 2.02
2.30 2.17 2.06 1.98 1.98 1.87 1.86 1.79 1.73 1.65 1.58 1.52 1.45 1.38 1.31 1.15 0.95 0.82 0.86 1.01 1.21 1.23 1.20 1.19 1.27 1.27 1.25 1.22 1.26 1.39 1.45 1.45 1.24 1.25 1.32 1.45 1.53 1.68 1.83 1.98 2.24 2.41 2.21
1.99 1.80 1.69 1.75 1.82 1.67 1.58 1.54 1.51 1.51 1.51 1.42 1.32 1.31 1.29 1.26 1.13 0.95 0.93 1.00 1.16 1.20 1.27 1.25 1.19 1.21 1.24 1.21 1.31 1.47 1.49 1.47 1.35 1.31 1.44 1.54 1.54 1.65 1.74 1.89 2.18 2.30 2.15
1.76 1.67 1.66 1.61 1.60 1.55 1.54 1.54 1.44 1.36 1.40 1.41 1.39 1.32 1.24 1.15 1.05 0.93 0.90 0.84 0.99 1.12 1.17 1.26 1.21 1.15 1.15 1.17 1.30 1.38 1.39 1.37 1.48 1.62 1.64 1.62 1.64 1.71 1.72 1.77 2.01 2.16 2.19
1.62 1.56 1.61 1.57 1.45 1.52 1.67 1.61 1.54 1.53 1.49 1.43 1.39 1.30 1.15 1.05 0.93 0.85 0.84 0.85 0.90 1.05 1.18 1.22 1.15 1.12 1.12 1.18 1.20 1.27 1.29 1.36 1.54 1.74 1.74 1.67 1.58 1.56 1.61 1.64 1.82 1.99 2.05
1.62 1.59 1.51 1.42 1.50 1.57 1.68 1.64 1.54 1.50 1.39 1.26 1.20 1.14 1.01 0.90 0.81 0.76 0.77 0.81 0.89 0.96 1.05 1.10 1.05 1.07 1.09 1.21 1.26 1.28 1.38 1.57 1.70 1.77 1.78 1.70 1.59 1.52 1.53 1.52 1.64 1.87 1.88
1.67 1.63 1.50 1.38 1.37 1.42 1.47 1.49 1.41 1.33 1.25 1.15 1.08 1.02 0.96 0.92 0.82 0.76 0.77 0.79 0.82 0.87 0.93 1.00 1.08 1.14 1.16 1.28 1.41 1.50 1.55 1.62 1.61 1.74 1.80 1.71 1.58 1.55 1.57 1.56 1.69 1.81 1.85
1.55 1.41 1.30 1.18 1.16 1.20 1.20 1.19 1.18 1.08 1.03 1.02 0.93 0.86 0.91 0.90 0.81 0.80 0.78 0.77 0.79 0.83 0.86 1.01 1.23 1.29 1.39 1.48 1.51 1.56 1.61 1.56 1.51 1.53 1.63 1.67 1.67 1.60 1.56 1.50 1.63 1.71 1.78
1.43 1.19 1.05 0.98 0.97 0.90 0.88 0.89 0.87 0.85 0.84 0.80 0.80 0.76 0.71 0.70 0.68 0.68 0.70 0.76 0.81 0.87 0.91 1.09 1.21 1.28 1.38 1.44 1.47 1.48 1.52 1.54 1.47 1.45 1.51 1.53 1.53 1.52 1.55 1.50 1.54 1.70 1.76
1.22 1.03 0.86 0.82 0.84 0.82 0.81 0.91 0.94 0.80 0.75 0.71 0.71 0.69 0.67 0.65 0.61 0.66 0.75 0.81 0.90 1.02 1.11 1.23 1.23 1.29 1.37 1.34 1.35 1.38 1.40 1.42 1.36 1.34 1.34 1.35 1.37 1.39 1.47 1.51 1.49 1.54 1.56
0.92 0.84 0.77 0.77 0.75 0.71 0.69 0.78 0.89 0.96 0.93 0.81 0.73 0.73 0.69 0.71 0.69 0.71 0.81 0.86 1.00 1.15 1.24 1.30 1.30 1.29 1.31 1.31 1.32 1.31 1.27 1.24 1.22 1.24 1.29 1.30 1.32 1.32 1.34 1.35 1.35 1.37 1.45
0.74 0.73 0.73 0.74 0.68 0.61 0.59 0.62 0.66 0.74 0.87 0.91 0.84 0.82 0.83 0.86 0.87 0.89 0.93 0.94 1.04 1.13 1.16 1.21 1.25 1.23 1.21 1.26 1.26 1.19 1.13 1.12 1.13 1.14 1.18 1.23 1.25 1.23 1.25 1.22 1.21 1.24 1.30
0.64 0.64 0.67 0.66 0.64 0.64 0.60 0.60 0.64 0.69 0.78 0.84 0.85 0.84 0.88 0.98 1.04 1.06 1.04 1.02 1.02 1.04 1.04 1.05 1.02 1.00 1.05 1.11 1.09 1.01 0.98 1.02 1.06 1.08 1.11 1.11 1.11 1.13 1.16 1.15 1.15 1.18 1.23
0.57 0.58 0.60 0.56 0.56 0.58 0.61 0.67 0.72 0.75 0.79 0.88 0.89 0.88 0.92 0.96 1.05 1.04 1.06 1.03 0.97 0.97 0.99 0.97 0.92 0.90 0.94 1.00 1.02 0.99 0.95 0.94 0.96 1.03 1.07 1.05 1.04 1.04 1.00 1.00 1.04 1.05 1.06
0.64 0.64 0.59 0.56 0.54 0.55 0.57 0.66 0.79 0.90 0.92 0.94 0.94 0.89 0.89 0.86 0.92 0.97 0.97 0.96 0.92 0.91 0.90 0.88 0.81 0.81 0.84 0.90 0.95 0.95 0.92 0.90 0.93 0.98 1.00 0.98 0.98 0.96 0.95 0.94 0.96 1.00 1.01
0.69 0.65 0.63 0.63 0.57 0.57 0.57 0.60 0.72 0.81 0.86 0.93 0.93 0.87 0.84 0.83 0.88 0.91 0.89 0.78 0.69 0.67 0.70 0.77 0.78 0.74 0.73 0.75 0.77 0.79 0.81 0.86 0.89 0.91 0.91 0.88 0.90 0.88 0.87 0.87 0.84 0.91 0.96
0.75 0.72 0.75 0.77 0.69 0.63 0.61 0.61 0.66 0.69 0.69 0.77 0.84 0.82 0.82 0.84 0.82 0.78 0.74 0.63 0.54 0.54 0.55 0.58 0.66 0.68 0.67 0.67 0.69 0.68 0.69 0.73 0.75 0.73 0.72 0.75 0.79 0.77 0.77 0.79 0.80 0.84 0.90
0.71 0.76 0.79 0.78 0.77 0.72 0.66 0.63 0.65 0.64 0.65 0.71 0.78 0.77 0.74 0.74 0.75 0.74 0.69 0.64 0.58 0.56 0.53 0.52 0.53 0.55 0.57 0.58 0.60 0.59 0.63 0.66 0.66 0.64 0.61 0.63 0.66 0.68 0.74 0.80 0.81 0.85 0.87
0.51 0.60 0.71 0.74 0.75 0.74 0.68 0.65 0.66 0.67 0.66 0.67 0.68 0.68 0.68 0.68 0.69 0.69 0.65 0.62 0.59 0.56 0.52 0.49 0.47 0.47 0.50 0.54 0.56 0.56 0.56 0.54 0.55 0.61 0.61 0.63 0.67 0.69 0.73 0.78 0.77 0.83 0.89